EW6762 Weather Reports


time (UTC)temp
C
wind
direction
speed
KPH
gust
KPH
rain 1hr
cm
rain 24hr
cm
rain mn
cm
humidity
%
barometer
mb
20260508142324 18 325 11.3 17.7 0.10 5.00 0.03 68 1018.8
20260508141316 18 31 4.8 11.3 0.10 5.00 0.03 73 1018.8
20260508140332 17 346 3.2 12.9 0.10 5.00 0.03 79 1018.8
20260508135319 17 344 6.4 11.3 0.10 5.00 0.03 79 1018.9
20260508134335 16 26 3.2 14.5 0.10 5.00 0.03 80 1018.8
20260508133324 16 285 3.2 12.9 0.10 5.00 0.03 85 1018.7
20260508132319 15 18 3.2 9.7 0.00 4.90 0.00 89 1018.6
20260508131308 14 355 4.8 12.9 0.00 4.90 0.00 91 1018.5
20260508130324 14 348 4.8 12.9 0.00 4.90 0.00 92 1018.4
20260508125318 13 281 6.4 12.9 0.00 5.00 0.00 94 1018.4
20260508124312 13 360 3.2 9.7 0.00 5.00 0.00 94 1018.4
20260508123317 13 338 4.8 9.7 0.00 5.00 0.00 95 1018.4
20260508122342 13 349 3.2 12.9 0.00 5.00 0.00 95 1018.1
20260508121315 13 282 4.8 8.0 0.00 5.00 0.00 96 1018.0
20260508120333 13 321 3.2 6.4 0.00 5.00 0.00 96 1017.9
20260508115308 13 325 1.6 8.0 0.00 5.59 0.00 96 1017.8
20260508114310 13 347 3.2 6.4 0.00 5.59 0.00 96 1017.9
20260508113350 13 321 1.6 6.4 0.00 5.59 0.00 96 1017.7
20260508112323 13 284 3.2 6.4 0.00 5.59 0.00 96 1017.6
20260508111314 13 311 1.6 6.4 0.00 5.59 0.00 96 1017.3
20260508110312 13 309 1.6 6.4 0.00 5.59 0.00 96 1017.1
20260508105326 13 333 3.2 6.4 0.00 5.99 0.00 96 1017.0
20260508104325 13 291 3.2 6.4 0.00 5.99 0.00 96 1016.9
20260508103318 13 339 1.6 8.0 0.00 5.99 0.00 96 1016.6
20260508102315 13 312 3.2 6.4 0.00 5.99 0.00 96 1016.6
20260508101314 12 343 1.6 4.8 0.00 5.99 0.00 96 1016.5
20260508100310 12 350 1.6 8.0 0.00 5.99 0.00 96 1016.3
20260508095325 12 332 1.6 6.4 0.00 6.91 0.00 96 1016.1
20260508094320 12 5 4.8 8.0 0.00 6.91 0.00 95 1015.9
20260508093311 12 285 3.2 8.0 0.00 6.91 0.00 95 1015.9
20260508092333 13 304 3.2 4.8 0.00 6.91 0.00 95 1016.1
20260508091310 12 316 0.0 6.4 0.00 6.91 0.00 96 1015.8
20260508090332 12 347 3.2 6.4 0.00 6.91 0.00 95 1015.9
20260508085309 12 342 1.6 3.2 0.00 8.99 0.00 95 1015.9
20260508084320 12 281 0.0 4.8 0.00 8.99 0.00 95 1015.6
20260508083322 12 298 1.6 3.2 0.00 8.99 0.00 95 1015.5
20260508082312 13 321 0.0 3.2 0.00 8.99 0.00 95 1015.3
20260508081309 13 321 1.6 3.2 0.00 8.99 0.00 95 1015.4
20260508080325 13 311 1.6 3.2 0.00 8.99 0.00 95 1015.1
20260508075327 13 296 1.6 3.2 0.00 9.50 0.00 95 1015.1
20260508074318 13 284 1.6 3.2 0.00 9.50 0.00 95 1015.0
20260508073312 13 277 3.2 4.8 0.00 9.50 0.00 95 1014.9
20260508072311 13 302 1.6 3.2 0.00 9.50 0.00 95 1014.8
20260508071332 13 252 1.6 3.2 0.00 9.50 0.00 95 1014.8
20260508070348 13 265 1.6 4.8 0.00 9.50 0.00 95 1014.8
20260508065329 13 300 0.0 3.2 0.00 9.50 0.00 95 1014.6
20260508064326 13 300 1.6 3.2 0.00 9.50 0.00 95 1014.8
20260508063320 13 300 1.6 1.6 0.00 9.50 0.00 94 1014.7
20260508062321 13 300 0.0 1.6 0.00 9.50 0.00 94 1014.6
20260508061317 13 300 0.0 3.2 0.00 9.50 0.00 95 1014.6
20260508060313 13 300 0.0 1.6 0.00 9.50 0.00 94 1014.7
20260508055317 13 300 0.0 1.6 0.00 9.60 0.00 94 1014.7
20260508054314 13 300 1.6 3.2 0.00 9.60 0.00 95 1014.8
20260508053317 13 314 1.6 3.2 0.00 9.60 0.00 95 1014.8
20260508052333 13 321 1.6 1.6 0.00 9.60 0.00 94 1014.8
20260508051313 13 310 0.0 1.6 0.00 9.60 0.00 94 1014.7
20260508050326 13 310 1.6 3.2 0.00 9.60 0.00 94 1014.7
20260508045329 13 310 0.0 3.2 0.00 10.01 0.00 94 1014.4
20260508044323 13 308 1.6 3.2 0.00 10.01 0.00 94 1014.5
20260508043317 13 310 0.0 3.2 0.00 10.01 0.00 94 1014.4
20260508042338 13 310 1.6 4.8 0.00 10.01 0.00 94 1014.3
20260508041309 13 329 3.2 6.4 0.00 10.01 0.00 94 1014.1
20260508040327 14 345 1.6 6.4 0.00 10.01 0.00 94 1014.4
20260508035321 14 355 1.6 6.4 0.00 10.31 2.54 94 1014.3
20260508034325 14 306 1.6 6.4 0.00 10.31 2.54 94 1014.2
20260508033320 14 342 3.2 6.4 0.00 10.31 2.54 94 1014.1
20260508032313 13 278 3.2 6.4 0.00 10.31 2.54 94 1014.1
20260508031314 13 276 1.6 3.2 0.10 10.31 2.54 94 1013.9
20260508030313 13 321 1.6 3.2 0.10 10.31 2.54 94 1013.8
20260508025314 13 307 1.6 3.2 0.20 10.31 2.54 94 1013.7
20260508024310 13 300 1.6 9.7 0.20 10.31 2.54 94 1013.4
20260508023332 13 351 4.8 8.0 0.30 10.31 2.54 94 1013.1
20260508022326 13 350 4.8 12.9 0.41 10.31 2.54 94 1013.2
20260508021323 13 5 1.6 14.5 0.30 10.21 2.51 94 1013.0
20260508020325 13 5 3.2 9.7 0.30 10.21 2.51 94 1012.8
20260508015319 13 355 4.8 9.7 0.20 10.11 2.49 93 1013.0
20260508014314 13 317 3.2 4.8 0.71 10.11 2.49 93 1012.9
20260508013334 13 65 4.8 9.7 2.11 9.91 2.44 93 1012.3
20260508012336 13 5 3.2 8.0 2.49 9.91 2.44 93 1012.4
20260508011310 13 12 3.2 8.0 2.59 9.91 2.44 93 1012.4
20260508010334 13 34 3.2 8.0 2.59 9.91 2.44 92 1012.6
20260508005309 14 336 1.6 9.7 2.59 9.91 2.44 92 1012.3
20260508004329 14 340 3.2 12.9 2.11 9.40 2.31 91 1012.2
20260508003318 14 360 4.8 17.7 0.51 7.80 1.93 90 1011.3
20260508002335 14 324 4.8 17.7 0.10 7.39 1.80 89 1011.7
20260508001310 15 33 8.0 24.1 0.00 7.29 1.78 87 1011.1
20260508000324 15 324 4.8 17.7 0.00 7.29 1.78 86 1011.1
20260507235321 15 319 9.7 22.5 0.00 7.29 1.78 86 1010.8
20260507234336 15 329 9.7 17.7 0.00 7.29 1.78 86 1010.7
20260507233312 15 344 8.0 16.1 0.00 7.29 1.78 87 1010.8
20260507232326 15 360 12.9 20.9 0.00 7.29 1.78 87 1010.7
20260507231324 15 340 8.0 24.1 0.00 7.29 1.78 87 1010.5
20260507230317 16 335 8.0 25.7 0.00 7.29 1.78 87 1010.4
20260507225315 16 347 11.3 24.1 0.00 7.29 1.78 86 1010.0
20260507224351 16 326 9.7 19.3 0.00 7.29 1.78 87 1009.9
20260507223322 17 36 8.0 22.5 0.00 7.29 1.78 87 1009.8
20260507222318 17 96 8.0 29.0 0.00 7.29 1.78 87 1009.6
20260507221309 17 331 11.3 22.5 0.00 7.29 1.78 87 1009.9
20260507220325 18 340 11.3 33.8 0.00 7.29 1.78 86 1009.8
20260507215313 18 292 8.0 22.5 0.00 7.29 1.78 86 1009.9
20260507214330 19 305 11.3 27.4 0.00 7.29 1.78 84 1009.7
20260507212317 21 360 14.5 30.6 0.00 7.29 1.78 81 1008.9
20260507211322 21 343 9.7 19.3 0.00 7.29 1.78 83 1008.6
20260507210315 20 316 8.0 24.1 0.00 7.29 1.78 83 1008.6
20260507205332 21 310 12.9 19.3 0.00 7.29 1.78 83 1008.6
20260507204325 22 23 9.7 29.0 0.00 7.29 1.78 81 1008.5
20260507203322 23 322 9.7 22.5 0.00 7.29 1.78 80 1008.2
20260507202323 25 288 6.4 14.5 0.00 7.29 1.78 83 1007.8
20260507201332 25 190 4.8 12.9 0.00 7.29 1.78 85 1007.7
20260507200312 24 164 4.8 11.3 0.00 7.29 1.78 87 1008.0
20260507195327 24 230 4.8 11.3 0.00 7.29 1.78 86 1008.1
20260507194329 24 237 6.4 11.3 0.00 7.29 1.78 83 1007.9
20260507193318 24 281 4.8 8.0 0.00 7.29 1.78 85 1008.1
20260507192314 24 240 4.8 11.3 0.10 7.29 1.78 86 1008.2
20260507191317 24 293 6.4 14.5 0.10 7.29 1.78 85 1008.6
20260507190336 24 250 8.0 12.9 0.10 7.29 1.78 87 1008.4
20260507185326 24 200 4.8 11.3 0.10 7.29 1.78 89 1008.1
20260507184342 23 209 6.4 12.9 0.10 7.29 1.78 91 1008.7
20260507183312 23 254 4.8 16.1 0.10 7.29 1.78 92 1008.7
20260507182347 23 254 3.2 16.1 0.00 7.19 1.75 94 1009.2
20260507181321 22 249 6.4 12.9 0.00 7.19 1.75 94 1009.2
20260507180310 22 234 6.4 11.3 0.00 7.19 1.75 94 1008.7
20260507175328 22 241 3.2 12.9 0.00 7.19 1.75 94 1008.8
20260507174343 22 182 3.2 12.9 0.10 7.19 1.75 95 1008.6
20260507173322 22 94 4.8 12.9 0.20 7.19 1.75 94 1009.1
20260507172315 22 180 4.8 8.0 0.30 7.19 1.75 95 1008.9
20260507171335 22 150 3.2 6.4 0.41 7.19 1.75 95 1009.1
20260507170335 22 275 4.8 9.7 0.51 7.19 1.75 96 1009.3
20260507165344 22 222 3.2 11.3 0.61 7.19 1.75 96 1009.6
20260507164322 21 134 4.8 8.0 0.61 7.11 1.73 96 1009.7
20260507163318 21 96 4.8 11.3 0.51 7.01 1.70 95 1009.7
20260507162335 21 139 6.4 22.5 0.51 6.91 1.68 95 1010.4
20260507161328 21 202 6.4 16.1 0.51 6.81 1.65 94 1010.4
20260507160321 21 177 6.4 17.7 0.61 6.71 1.63 94 1010.4
20260507155324 21 222 8.0 16.1 0.61 6.60 1.60 95 1010.4
20260507154347 21 140 8.0 16.1 0.71 6.50 1.57 95 1010.3
20260507153323 21 103 4.8 14.5 0.89 6.50 1.57 95 1010.3
20260507152344 21 191 4.8 9.7 0.89 6.40 1.55 95 1010.5
20260507151326 21 166 1.6 8.0 0.89 6.30 1.52 95 1010.5
20260507150321 21 212 3.2 6.4 0.71 6.10 1.47 95 1010.5
20260507145343 21 175 4.8 9.7 0.61 5.99 1.45 94 1010.7
20260507144317 21 215 4.8 8.0 0.41 5.79 1.40 94 1010.8
20260507143318 21 214 3.2 9.7 0.20 5.59 1.35 94 1010.9